Regional Weather Roundup
Issued by NWS

Home | Current Version | Previous Version | Text Only | Print | Product List | Glossary On
Versions: 1 2 3 4 5 6 7 8 9 10 11 12 13 14 15 16 17 18 19 20 21 22 23 24 25 26 27 28 29 30 31 32 33 34 35 36 37 38 39 40 41 42 43 44 45 46 47 48 49 50
713
ASUS43 KLSX 291957
RWRMO

WEATHER SUMMARY FOR MISSOURI
NATIONAL WEATHER SERVICE SPRINGFIELD MO
300 PM CDT FRI APR 29 2016

NOTE: "FAIR" INDICATES FEW OR NO CLOUDS BELOW 12,000 FEET WITH NO
       SIGNIFICANT WEATHER AND/OR OBSTRUCTIONS TO VISIBILITY.
       CURRENT SKY AND/OR WEATHER CONDITIONS ARE NOT AVAILABLE FOR
       CHILLICOTHE AND FARMINGTON.

MOZ001>031-035>038-043-044-053-054-292100-
...NORTHERN AND WESTERN MISSOURI...

CITY           SKY/WX    TMP DP  RH WIND       PRES   REMARKS
KANSAS CTY INT CLOUDY    55  47  74 NE14      29.95F
LEE`S SUMMIT   CLOUDY    55  48  77 NE16      29.94F
ST JOSEPH      CLOUDY    54  46  74 E9        29.98F
CHILLICOTHE      N/A     56  47  71 NE10      30.02F

$$
MOZ066>068-077>081-088>096-101>105-292100-
...SOUTHWEST MISSOURI...

CITY           SKY/WX    TMP DP  RH WIND       PRES   REMARKS
SPRINGFIELD    CLOUDY    64  54  69 E18       29.87F
JOPLIN         CLOUDY    65  55  70 E21G29    29.81S
BRANSON        CLOUDY    57  55  94 E14G21    29.88F

$$
MOZ032>034-039>042-045>050-055>058-069>072-292100-
...CENTRAL MISSOURI...

CITY           SKY/WX    TMP DP  RH WIND       PRES   REMARKS
COLUMBIA       NOT AVBL
JEFFERSON CITY CLOUDY    62  50  64 E12       29.98F
ROLLA          LGT RAIN  59  52  77 E10       29.97F
SEDALIA        CLOUDY    62  52  69 E13       29.97F
WARRENSBURG    CLOUDY    57  50  77 NE13      29.97R

$$
MOZ051-052-059>065-292100-
...EAST CENTRAL MISSOURI...

CITY           SKY/WX    TMP DP  RH WIND       PRES   REMARKS
ST LOUIS INTL  CLOUDY    64  50  60 E7        30.03S

$$
MOZ072>076-082>087-097>100-106>115-292100-
...SOUTH CENTRAL AND SOUTHEAST MISSOURI...

CITY           SKY/WX    TMP DP  RH WIND       PRES   REMARKS
CAPE GIRARDEAU LGT RAIN  59  56  89 E8        30.01F FOG
POPLAR BLUFF   CLOUDY    60  56  86 E6        29.96S
WEST PLAINS    CLOUDY    59  54  83 E13       29.93F

$$



USA.gov is the U.S. government's official web portal to all federal, state and local government web resources and services.